Weather History for East Milton, MA

Change the Weather History Date:

Friday, March 29, 2013

  Actual Average (KBOS) Record (KBOS)
Temperature  
Mean Temperature 45 °F 42 °F  
Max Temperature 55 °F 49 °F 86 °F (1945)
Min Temperature 36 °F 35 °F 4 °F (1923)
Degree Days  
Heating Degree Days 20 23  
Month to date heating degree days 784  
Since 1 July heating degree days 4826  
Cooling Degree Days 0 0  
Month to date cooling degree days 0  
Year to date cooling degree days 0  
Moisture  
Dew Point 29 °F    
Average Humidity 55    
Maximum Humidity 76    
Minimum Humidity 35    
Precipitation  
Precipitation 0.00 in 0.13 in 1.96 in (2010)
Month to date precipitation 4.04  
Year to date precipitation 10.65  
Sea Level Pressure  
Sea Level Pressure 30.03 in    
Wind  
Wind Speed 10 mph (NW)    
Max Wind Speed 14 mph    
Max Gust Speed 23 mph    
T = Trace of Precipitation, MM = Missing Value Source: NWS Daily Summary

Daily Weather History Graph

Daily Weather History Graph

Search for Another Location

Airport:

Trip Planner

Search our weather history database for the weather conditions in past years. The results will help you decide how hot, cold, wet, or windy it might be!

Date:

Astronomy

Mar. 29, 2013 Rise Set
Actual Time 6:31 AM EDT 7:07 PM EDT
Civil Twilight 6:03 AM EDT 7:35 PM EDT
Nautical Twilight 5:30 AM EDT 8:08 PM EDT
Astronomical Twilight 4:56 AM EDT 8:43 PM EDT
Moon 10:07 PM EDT (3/29) 7:35 AM EDT (3/29)
Length of Visible Light 13h 31m
Length of Day
12h 35m
Waning Gibbous, 93% of the Moon is Illuminated
Mar 29
Waning Gibbous
Apr 3
Last Quarter
Apr 10
New
Apr 18
First Quarter
Apr 25
Full

Hourly Weather History & Observations

Time (EDT) Temp. Windchill Dew Point Humidity Pressure Visibility Wind Dir Wind Speed Gust Speed Precip Events Conditions
12:54 AM 39.0 °F 32.8 °F 30.0 °F 70% 30.04 in - WNW 9.2 mph - N/A   Unknown
1:54 AM 37.9 °F 30.9 °F 28.9 °F 70% 30.04 in - NW 10.4 mph - N/A   Unknown
2:54 AM 37.9 °F 30.0 °F 28.9 °F 70% 30.04 in - NW 12.7 mph - N/A   Unknown
3:54 AM 37.9 °F 30.5 °F 28.9 °F 70% 30.03 in - NW 11.5 mph - N/A   Unknown
4:54 AM 37.0 °F 29.8 °F 28.0 °F 70% 30.03 in - WNW 10.4 mph - N/A   Unknown
5:54 AM 36.0 °F 28.0 °F 28.0 °F 73% 30.04 in - WNW 11.5 mph - N/A   Unknown
6:54 AM 36.0 °F 27.5 °F 28.9 °F 76% 30.05 in - WNW 12.7 mph - N/A   Unknown
7:54 AM 39.0 °F 32.3 °F 30.0 °F 70% 30.05 in - WNW 10.4 mph - N/A   Unknown
8:54 AM 44.1 °F 37.7 °F 30.9 °F 60% 30.05 in - NW 12.7 mph 16.1 mph N/A   Unknown
9:54 AM 48.0 °F - 30.9 °F 52% 30.05 in - NNW 12.7 mph 23.0 mph N/A   Unknown
10:54 AM 48.9 °F - 30.9 °F 50% 30.06 in - NW 13.8 mph - N/A   Unknown
11:54 AM 50.0 °F - 30.9 °F 48% 30.05 in - NW 9.2 mph 18.4 mph N/A   Unknown
12:54 PM 53.1 °F - 30.0 °F 41% 30.04 in - NW 8.1 mph - N/A   Unknown
1:54 PM 54.0 °F - 27.0 °F 35% 30.02 in - NW 10.4 mph - N/A   Unknown
2:54 PM 53.1 °F - 28.0 °F 38% 30.00 in - Variable 5.8 mph - N/A   Unknown
3:54 PM 53.1 °F - 26.1 °F 35% 29.99 in - Variable 3.5 mph - N/A   Unknown
4:54 PM 52.0 °F - 25.0 °F 35% 29.99 in - Calm Calm - N/A   Unknown
5:54 PM 50.0 °F - 27.0 °F 41% 30.00 in - NW 9.2 mph - N/A   Unknown
6:54 PM 50.0 °F - 27.0 °F 41% 30.02 in - NNW 11.5 mph 19.6 mph N/A   Unknown
7:54 PM 45.0 °F 41.8 °F 30.0 °F 56% 30.03 in - NNE 5.8 mph - N/A   Unknown
8:54 PM 46.0 °F 39.9 °F 27.0 °F 47% 30.04 in - NW 13.8 mph 20.7 mph N/A   Unknown
9:54 PM 45.0 °F 39.7 °F 27.0 °F 49% 30.05 in - NW 10.4 mph - N/A   Unknown
10:54 PM 43.0 °F 37.7 °F 28.0 °F 56% 30.06 in - NW 9.2 mph - N/A   Unknown
11:54 PM 42.1 °F 36.6 °F 28.9 °F 60% 30.06 in - NW 9.2 mph - N/A   Unknown